Preview of NWS' New Version of Forecast
This preview is not operational and should not be used for support decisions.
Latest weather observations around

Camp Springs / Andrews Air Force Base (KADW)

Using English Units (Switch to International System of Units)
Date/ Time (EDT) Wind (mph) Vis. (mi) Weather Sky Cond. Temp (°F) Rel. Humidity Wind Chill (°F) Heat Index (°F) Pressure Precip. (in)
Air Dwpt 6 hour Altimeter (inHg) Sea level (inHg) 1 hr 3 hr 6 hr
Max Min
Jun 22 12:29 ENE 9 8 Light Rain BKN003 OVC012 68 66     94%     29.91 29.93      
Jun 22 12:14 E 8 10 Light Rain FEW003 BKN013 OVC055 68 66     94%     29.91 29.93      
Jun 22 12:09 E 10 10 Light Rain FEW003 SCT012 BKN017 BKN048 OVC055 68 66     94%     29.91 29.93      
Jun 22 12:08 E 13 10 Light Rain SCT012 BKN017 BKN048 OVC055 68 66     94%     29.9 29.91      
Jun 22 12:03 E 10 10 Light Drizzle SCT012 SCT017 OVC055 68 66     94%     29.9 29.91      
Jun 22 11:56 E 9 10 Cloudy FEW012 OVC060 69 66     91%     29.9 29.91 0    
Jun 22 11:38 ENE 11 10 Cloudy SCT010 SCT016 OVC060 70 66     88%     29.9 29.91      
Jun 22 11:28 ENE 9 10 Cloudy BKN011 BKN017 OVC065 70 66     88%     29.9 29.91      
Jun 22 11:13 E 11 10 Cloudy SCT010 BKN014 BKN055 OVC070 70 66     88%     29.89 29.91      
Jun 22 11:08 E 10 10 Cloudy SCT011 BKN017 OVC070 70 66     88%     29.89 29.91      
Jun 22 10:56 ENE 8 10 Light Rain FEW014 OVC065 69 66     91%     29.89 29.91 0 0  
Jun 22 10:27 ENE 9 10 Light Rain OVC070 68 66     94%     29.88 29.89      
Jun 22 10:25 ENE 9 10 Clear CLR 68 66     94%     29.88 29.89      
Jun 22 09:56 ENE 9 10 Light Rain BKN055 OVC065 67 64     90%     29.89 29.91 0    
Jun 22 09:26 ENE 7 10 Light Drizzle OVC060 68 63     83%     29.89 29.91      
Jun 22 09:03 ENE 8 10 Cloudy OVC070 68 63     83%     29.88 29.89      
Jun 22 08:58 ENE 8 10 Light Drizzle OVC070 68 63     83%     29.88 29.89      
Jun 22 08:56 ENE 10 10 Cloudy OVC070 67 62     84%     29.88 29.89 0    
Jun 22 08:39 ENE 7 10 Cloudy OVC075 66 61     83%     29.88 29.89      
Jun 22 07:56 E 10 10 Light Rain FEW060 OVC080 68 64     88%     29.87 29.88 0   0
Jun 22 07:13 E 5 10 Light Rain FEW003 SCT060 OVC080 70 63     78%     29.86 29.87      
Jun 22 07:01 E 5 10 Light Drizzle OVC080 70 63     78%     29.85 29.86      
Jun 22 06:56 ENE 6 10 Cloudy FEW070 OVC085 70 61     73%   70 29.85 29.86      
Jun 22 05:56 ENE 6 10 Cloudy BKN070 OVC090 71 65     83%   71 29.84 29.85      
Jun 22 04:56 ENE 5 10 Cloudy OVC100 71 64     78%   71 29.82 29.83   0  
Jun 22 03:56 E 7 10 Mostly Cloudy BKN140 71 68     92%   72 29.81 29.82 0    
Jun 22 03:29 E 7 10 Partly Cloudy FEW110 SCT140 72 68     88%   73 29.81 29.82      
Jun 22 03:19 E 6 10 Light Drizzle FEW110 72 68     88%   73 29.81 29.82      
Jun 22 02:56 E 6 10 Partly Cloudy FEW120 SCT140 72 69     90%   73 29.81 29.82      
Jun 22 01:56 ENE 5 10 Mostly Cloudy FEW065 BKN085 72 69     90%   73 29.82 29.83      
Jun 22 00:56 ESE 6 10 Cloudy OVC090 73 69     89%   74 29.83 29.84      
Jun 21 23:56 E 5 10 Cloudy SCT070 OVC090 74 69     85%   75 29.83 29.84      
Jun 21 22:56 ENE 3 10 Partly Cloudy SCT100 74 68     81%   75 29.82 29.83      
Jun 21 21:56 Calm 10 Partly Cloudy FEW075 SCT200 74 67     79%   75 29.82 29.83      
Jun 21 20:56 E 5 10 Mostly Cloudy BKN070 BKN210 75 68     80%   76 29.82 29.83      
Jun 21 19:56 E 3 10 Mostly Clear FEW038 76 69     77%   77 29.8 29.81      
Jun 21 18:56 NNE 5 10 Partly Cloudy FEW032 SCT220 78 69     74%   79 29.78 29.79      
Jun 21 18:16 NE 6 10 Mostly Cloudy SCT030 BKN036 BKN080 79 68     70%   80 29.77 29.78      
Jun 21 18:06 NE 8 10 Cloudy BKN029 OVC080 79 68     70%   80 29.77 29.78      
Jun 21 17:56 NNE 7 10 Cloudy FEW031 OVC080 79 68     70%   80 29.77 29.78      
Jun 21 16:56 NE 10 10 Mostly Cloudy BKN035 BKN041 BKN075 80 69     69%   83 29.77 29.78      
Jun 21 15:56 NNE 8 10 Cloudy FEW037 OVC070 81 71     71%   84 29.77 29.78      
Jun 21 15:11 NW 7 10 Mostly Cloudy SCT028 BKN036 BKN065 81 70     70%   84 29.78 29.79      
Jun 21 15:01 NNW 5 10 Cloudy BKN028 BKN035 OVC065 79 70     74%   80 29.78 29.79      
Jun 21 14:56 N 3 10 Cloudy BKN029 OVC065 79 70     73%   82 29.78 29.79      
Jun 21 14:41 N 8 10 Cloudy BKN026 BKN033 OVC060 79 70     74%   80 29.78 29.79      
Jun 21 14:01 N 9 10 Mostly Cloudy SCT021 BKN190 81 72     74%   85 29.78 29.79      
Jun 21 13:56 NE 9 10 Mostly Cloudy BKN021 80 70     72%   84 29.78 29.79     0
Jun 21 13:26 N 8 10 Mostly Cloudy BKN018 BKN160 81 72     74%   85 29.79 29.8      
Jun 21 12:56 NNE 9 10 Partly Cloudy FEW010 SCT075 SCT200 78 72     81%   79 29.79 29.8 0    
Jun 21 12:21 NNW 8 10 Cloudy SCT018 SCT025 SCT035 BKN049 OVC075 79 72     79%   82 29.79 29.8      
Jun 21 12:11 N 9 10 Cloudy BKN019 BKN025 BKN034 BKN045 OVC060 79 72     79%   82 29.79 29.8      
Jun 21 12:06 N 7 10 Cloudy SCT016 BKN021 BKN033 BKN045 OVC060 79 72     79%   82 29.79 29.8      
Jun 21 11:56 NNE 7 10 Light Drizzle BKN019 BKN033 79 71     76%   80 29.79 29.8 0    
Jun 21 11:54 NNE 7 10 Light Drizzle BKN019 BKN033 79 70     74%   80 29.79 29.8      
Jun 21 11:01 N 7 10 Cloudy SCT022 BKN032 BKN055 BKN070 OVC085 79 70     74%   80 29.78 29.79      
Jun 21 10:56 N 5 10 Cloudy BKN022 BKN029 BKN035 BKN050 OVC070 78 69     74%   79 29.78 29.79      
Jun 21 10:26 NNW 7 10 Mostly Cloudy BKN021 79 70     74%   80 29.78 29.79      
Jun 21 09:56 NW 7 10 Mostly Cloudy BKN037 78 69     75%   79 29.77 29.78      
Jun 21 08:56 NW 3 10 Mostly Cloudy BKN036 76 71     83%   77 29.77 29.78      
Jun 21 07:56 Calm 10 Cloudy OVC035 73 70     89%   74 29.77 29.78     0
Jun 21 06:56 SSW 3 10 Cloudy OVC039 71 71     99%   73 29.76 29.77      
Jun 21 05:56 SW 3 10 Cloudy OVC043 70 70     100%   72 29.75 29.76 0    
Jun 21 05:11 Calm 10 Cloudy BKN049 OVC140 70 70     100%     29.73 29.74      
Jun 21 05:02 SSW 3 10 Drizzle BKN049 OVC140 70 70     100%     29.73 29.74      
Jun 21 04:56 SSW 3 10 Cloudy FEW050 OVC140 69 69     99%     29.74 29.75      
Jun 21 04:35 SSW 5 10 Cloudy FEW005 BKN140 OVC230 70 68     94%     29.73 29.74      
Jun 21 03:56 Calm 10 Mostly Clear FEW130 70 69     98%   71 29.73 29.74      
Jun 21 02:56 W 3 10 Cloudy SCT120 OVC150 71 70     96%   72 29.74 29.75      
Jun 21 01:56 WSW 7 10 Cloudy SCT100 BKN130 OVC160 71 69     94%   72 29.77 29.78     0
Jun 21 00:56 W 8 10 Cloudy FEW050 OVC150 72 70     95%   73 29.78 29.79      
Jun 20 23:56 Calm 10 Mostly Cloudy BKN140 72 69     93%   73 29.77 29.78 0    
Jun 20 23:39 W 5 10 Mostly Cloudy BKN140 72 70     94%   73 29.78 29.79      
Jun 20 23:29 WSW 6 10 Light Drizzle BKN140 72 70     94%   73 29.78 29.79      
Jun 20 22:56 WSW 3 10 Mostly Clear FEW120 72 70     94%   73 29.79 29.8 0 0  
Jun 20 22:29 WNW 5 10 Cloudy SCT049 SCT095 OVC120 72 70     94%   73 29.79 29.8      
Jun 20 22:01 WSW 7 10 Light Drizzle SCT025 72 70     94%   73 29.8 29.81      
Jun 20 21:56 SW 7 10 Light Drizzle BKN025 BKN090 72 69     92%   73 29.8 29.81 0    
Jun 20 21:51 SW 8 10 Light Rain BKN025 BKN090 72 70     94%   73 29.8 29.81      
Jun 20 20:56 W 8 10 Light Drizzle FEW023 FEW060 SCT130 76 71     85%   77 29.79 29.8 0    
Jun 20 20:50 W 9 10 Light Drizzle FEW024 FEW060 SCT130 75 72     89%   77 29.79 29.8      
Jun 20 20:47 WNW 7 10 Mostly Cloudy FEW024 SCT030 SCT060 BKN130 77 72     83%   78 29.79 29.8      
Jun 20 20:37 NW 9 10 Cloudy SCT020 BKN026 OVC130 77 72     83%   78 29.79 29.8      
Jun 20 20:22   10 Light Rain OVC027 79 72     79%   82 29.8 29.81      
Jun 20 19:56 Calm 10 Mostly Cloudy BKN028 BKN160 78 73     84%   80 29.8 29.81     0
Jun 20 19:21 Calm 10 Mostly Cloudy SCT028 BKN130 BKN160 79 72     79%   82 29.78 29.79      
Jun 20 19:06 ENE 3 10 Mostly Cloudy BKN029 BKN150 79 72     79%   82 29.78 29.79      
Jun 20 18:56 ENE 3 10 Mostly Cloudy BKN031 BKN150 78 72     81%   79 29.77 29.78 0    
Jun 20 18:51 ENE 5 10 Cloudy BKN031 OVC065 77 72     83%   78 29.77 29.78      
Jun 20 17:56 S 3 10 Light Rain OVC050 77 72     85%   79 29.77 29.78 0    
Jun 20 17:25 Calm 10 Light Drizzle FEW140 81 68     66%   83 29.78 29.79      
Jun 20 16:56 SW 6 10 Clear CLR 81 66     59%   84 29.79 29.8      
Jun 20 15:56 Calm 10 Partly Cloudy FEW055 SCT180 83 66     57%   85 29.8 29.81      
Jun 20 14:56 WSW 6 10 Cloudy OVC060 84 65     53%   86 29.83 29.84      
Jun 20 13:56 SSW 6 10 Mostly Cloudy SCT090 BKN120 BKN160 84 65     53%   86 29.84 29.85      
Jun 20 12:56 SW 5 10 Mostly Cloudy FEW100 FEW130 SCT150 BKN180 BKN210 84 65     54%   86 29.85 29.86      
Jun 20 11:56 Calm 10 Mostly Cloudy FEW080 FEW160 SCT180 BKN200 82 63     52%   84 29.87 29.88      
Jun 20 10:56 E 3 10 Mostly Cloudy FEW075 FEW120 SCT140 SCT170 BKN190 80 64     58%   81 29.87 29.88      
Jun 20 09:56 Calm 10 Clear CLR 78 64     63%   78 29.88 29.89      
Jun 20 08:56 NE 5 10 Partly Cloudy FEW150 FEW180 SCT200 75 62     64%   75 29.89 29.9      
Jun 20 07:56 NNE 5 10 Mostly Clear FEW065 74 59     60%   73 29.89 29.9      
Jun 20 06:56 NNE 7 10 Mostly Clear FEW050 70 59     69%     29.89 29.9      
Jun 20 05:56 NE 6 10 Mostly Cloudy BKN060 69 60     72%     29.87 29.88      
Jun 20 04:56 N 6 10 Partly Cloudy SCT060 70 59     70%     29.87 29.88      
Jun 20 03:56 NE 5 10 Cloudy OVC060 71 60     68%   71 29.87 29.88      
Jun 20 02:56 NNE 6 10 Mostly Cloudy BKN055 71 62     74%   71 29.87 29.88      
Jun 20 01:56 NE 3 10 Clear   71 64     78%   72 29.87 29.88      
Jun 20 00:56 N 5 10 Clear CLR 72 66     82%   73 29.87 29.88      
Jun 19 23:56 NNW 6 10 Mostly Clear FEW230 76 69     80%   77 29.87 29.88      
Jun 19 22:56 NNW 5 10 Clear CLR 76 72     86%   77 29.87 29.88      
Jun 19 21:56 Calm 10 Clear CLR 75 72     91%   76 29.88 29.89      
Jun 19 20:56 NW 3 10 Partly Cloudy SCT080 77 71     80%   79 29.87 29.88      
Jun 19 19:56 N 5 10 Clear CLR 78 72     81%   80 29.85 29.86     0
Jun 19 18:56 N 6 10 Clear CLR 79 72     79%   82 29.84 29.85 0    
Jun 19 17:56 NNW 8 10 Mostly Clear FEW200 78 72     84%   79 29.83 29.84      
Jun 19 16:56 NNW 7 10 Mostly Clear FEW160 80 77     91%   85 29.82 29.83 0 0  
Jun 19 16:26 N 3 8 Mostly Clear FEW005 77 77     100%   79 29.83 29.84      
Jun 19 16:04 NNE 3 10 Partly Cloudy SCT014 77 75     94%   79 29.83 29.84      
Jun 19 15:56 NNE 3 9 Light Rain FEW007 BKN014 77 75     95%   79 29.84 29.85 0    
Jun 19 15:54 NNE 3 9 Light Rain FEW007 BKN014 77 75     94%   79 29.84 29.85      
Jun 19 15:49 Calm 6 Light Rain and Fog/Mist FEW007 OVC015 77 75     94%   79 29.84 29.85      
Jun 19 15:44 NW 3 5 Heavy Rain and Fog/Mist SCT007 OVC013 77 75     94%   79 29.84 29.85      
Jun 19 15:39 NW 6 3 Heavy Rain and Fog/Mist OVC008 77 77     100%   79 29.84 29.85      
Jun 19 15:36 WNW 7 2.5 Heavy Rain and Fog/Mist OVC008 77 77     100%   79 29.84 29.85      
Jun 19 15:35 WNW 8 2.25 Thunderstorms and Heavy Rain and Fog/Mist OVC008 77 77     100%   79 29.85 29.86      
Jun 19 15:30 NW 7 2.75 Thunderstorms and Rain and Fog/Mist SCT008 OVC014 79 77     94%   83 29.85 29.86      
Jun 19 15:20 Calm 2.75 Thunderstorms and Rain and Fog/Mist FEW007 OVC017 79 77     94%   83 29.84 29.85      
Jun 19 15:18 Calm 3 Thunderstorms and Rain and Fog/Mist FEW007 OVC017 79 77     94%   83 29.85 29.86      
Jun 19 15:14 W 5 2 Thunderstorms and Heavy Rain and Fog/Mist VV019 79 77     94%   83 29.85 29.86      
Jun 19 15:13 W 3 1.63 Thunderstorms and Heavy Rain and Fog/Mist VV020 79 77     94%   83 29.85 29.86      
Jun 19 15:11 Calm 1.37 Thunderstorms and Heavy Rain and Fog/Mist OVC020 79 77     94%   83 29.85 29.86      
Jun 19 15:10 Calm 1.63 Thunderstorms and Heavy Rain and Fog/Mist OVC020 79 77     94%   83 29.84 29.85      
Jun 19 15:07 Calm 2.75 Thunderstorms and Heavy Rain and Fog/Mist OVC020 79 75     89%   82 29.84 29.85      
Jun 19 14:58 N 3 3 Thunderstorms and Rain and Fog/Mist BKN021 79 75     89%   82 29.83 29.84      
Jun 19 14:56 NNE 3 2.5 Thunderstorms and Heavy Rain and Fog/Mist BKN021 79 75     88%   84 29.83 29.84 0    
Jun 19 14:52 Calm 2.75 Thunderstorms and Heavy Rain BKN019 BKN040 79 75     89%   82 29.83 29.84      
Jun 19 14:48 ESE 3 5 Thunderstorms and Heavy Rain BKN019 BKN040 81 75     84%   86 29.83 29.84      
Jun 19 14:33 SE 3 10 Thunderstorms and Rain SCT018 SCT042 81 75     84%   86 29.83 29.84      
Jun 19 14:23 NNE 5 10 Light Rain SCT041 82 75     79%   89 29.83 29.84      
Jun 19 13:56 NNE 7 10 Partly Cloudy FEW100 FEW170 SCT200 84 75     75%   93 29.82 29.83 0   0
Jun 19 13:52 N 9 9 Partly Cloudy FEW110 FEW150 SCT170 SCT200 84 75     74%   92 29.82 29.83      
Jun 19 13:37 NNE 9 10 Thunderstorms FEW110 SCT150 SCT180 SCT200 86 73     66%   93 29.82 29.83      
Jun 19 13:15 N 13 10 Mostly Cloudy FEW060 FEW080 SCT150 SCT190 BKN210 91 73     56%   101 29.82 29.83      
Jun 19 13:12 NW 15 10 Light Drizzle FEW080 SCT150 BKN190 91 72     53%   99 29.82 29.83      
Jun 19 13:05 W 9 10 Light Drizzle FEW080 FEW110 FEW130 BKN150 BKN190 91 72     53%   99 29.82 29.83      
Jun 19 12:56 WNW 10 10 Mostly Cloudy FEW080 FEW120 SCT150 BKN200 92 71     51%   98 29.82 29.83      
May 14 21:08 SE 13 10 Light Rain OVC032 66 64     94%     29.94 29.96      
May 14 20:01 NNE 9 3 Heavy Rain and Fog/Mist OVC023 66 64     94%     29.99 30.01      
May 14 19:52   4 Heavy Rain and Fog/Mist OVC018 66 64     94%     29.99 30.01      
May 14 19:39 NNW 14 1.88 Thunderstorms and Heavy Rain and Fog/Mist OVC012 66 64     94%     30 30.02      
May 14 19:12   8 Thunderstorms and Heavy Rain FEW004 72 66     83%   72 29.98 30      
May 14 18:57 ESE 6 10 Light Rain FEW120 72 68     88%   73 29.93 29.95      
May 13 19:58 E 7 10 Cloudy OVC005 61 59     94%     30.02 30.04      
May 13 13:30 E 11 10 Clear   66 64     94%     30.06 30.08      
May 13 09:56 ENE 7 10 Cloudy OVC005 65 65     98%     30.09 30.11 0    
May 13 07:17 NE 3 10 Mostly Cloudy BKN003 63 63     100%     30.06 30.07      
May 13 07:16 ENE 5 10 Light Rain BKN003 63 63     100%     30.06 30.07      
May 13 05:26   5 Heavy Rain and Fog/Mist OVC006 64 63     94%     30.09 30.1      
May 12 20:56   10 Thunderstorms and Rain FEW090 75 68     81%   76   29.98 0    
May 12 08:56 ENE 5 10 Clear   69 62     78%     30.07 30.09      
May 11 20:56 ESE 6 10 Mostly Clear FEW080 71 53     54%   70 30.04 30.06      
Jun 11 17:58 SW 11 10 Clear   90 62     38%   91 30.07 30.08      
Jun 11 15:58 SSW 11 10 Clear CLR 92 58     33%   91 30.09 30.1      
Jun 09 00:58 Calm 10 Clear CLR 53 50     88%     29.82 29.84      
Notice The following observation data may not be complete
Jun 08 01:58   10 Clear CLR          %              
Jun 07 23:58 N 5 10 Clear CLR 53 50     88%     30.04 30.06      
Notice The following observation data may not be complete
Jun 07 18:58   10 Cloudy OVC038          %              
Jun 07 16:18 ENE 8 10 Mostly Cloudy BKN029 BKN200 64 54     68%     29.99 30.01      
Jun 07 15:48 ENE 11 10 Mostly Cloudy SCT023 BKN031 BKN160 64 54     68%     29.99 30.01      
Notice The following observation data may not be complete
Jun 07 13:23   10 Mostly Cloudy FEW022 BKN030          %              
Jun 07 11:13 E 9 10 Cloudy OVC014 61 55     82%     29.97 29.99      
Jun 07 09:18 E 9 10 Cloudy BKN014 OVC024 61 55     82%     29.95 29.97      
Jun 06 04:19 W 6 1.25 Fog/Mist SCT001 64 64     100%     29.66 29.67      
Jun 06 04:17 W 6 0.75 Fog/Mist VV001 64 64     100%     29.66 29.67      
Jun 06 01:10 Calm 1.25 Fog/Mist FEW041 63 63     100%     29.68 29.7      
Jun 06 00:57 Calm 0.75 Fog/Mist FEW065 63 63     100%     29.69 29.7